TimeEST,TemperatureF,Dew PointF,Humidity,Sea Level PressureIn,VisibilityMPH,Wind Direction,Wind SpeedMPH,Gust SpeedMPH,PrecipitationIn,Events,Conditions,WindDirDegrees,DateUTC
12:29 AM,33.8,23.0,65,30.03,9.0,West,18.4,24.2,0.00,Snow,Light Snow,280,2011-11-18 05:29:00
12:37 AM,33.8,24.8,70,30.03,2.5,WNW,20.7,29.9,0.00,Snow,Light Snow,290,2011-11-18 05:37:00
12:40 AM,33.8,26.6,75,30.04,1.2,WNW,18.4,29.9,0.00,Snow,Light Snow,290,2011-11-18 05:40:00
12:45 AM,32.0,26.6,80,30.04,0.8,WNW,16.1,24.2,0.00,Snow,Light Snow,290,2011-11-18 05:45:00
12:54 AM,32.0,28.0,85,30.04,1.5,WNW,18.4,24.2,0.02,Snow,Light Snow,290,2011-11-18 05:54:00
1:03 AM,32.0,28.4,87,30.05,2.0,WNW,12.7,24.2,0.00,Snow,Light Snow,290,2011-11-18 06:03:00
1:10 AM,32.0,26.6,80,30.05,5.0,WNW,16.1,26.5,0.00,Snow,Light Snow,290,2011-11-18 06:10:00
1:29 AM,32.0,26.6,80,30.06,8.0,West,17.3,-,0.00,Snow,Light Snow,280,2011-11-18 06:29:00
1:54 AM,32.0,27.0,82,30.08,2.5,WNW,20.7,27.6,0.00,Snow,Light Snow,290,2011-11-18 06:54:00
1:56 AM,32.0,26.6,80,30.08,1.5,WNW,20.7,27.6,0.00,Snow,Light Snow,290,2011-11-18 06:56:00
2:09 AM,32.0,26.6,80,30.09,4.0,WNW,19.6,26.5,0.00,Snow,Light Snow,290,2011-11-18 07:09:00
2:24 AM,32.0,26.6,80,30.09,2.5,West,18.4,25.3,0.00,Snow,Light Snow,280,2011-11-18 07:24:00
2:28 AM,32.0,26.6,80,30.10,4.0,West,17.3,25.3,0.00,Snow,Light Snow,280,2011-11-18 07:28:00
2:54 AM,32.0,23.0,69,30.11,9.0,West,18.4,24.2,0.00,,Overcast,280,2011-11-18 07:54:00
3:54 AM,32.0,23.0,69,30.13,10.0,West,16.1,-,0.00,,Overcast,280,2011-11-18 08:54:00
4:54 AM,32.0,21.9,66,30.15,10.0,West,20.7,-,N/A,,Mostly Cloudy,270,2011-11-18 09:54:00
5:54 AM,33.1,24.1,70,30.19,10.0,West,16.1,29.9,N/A,,Overcast,270,2011-11-18 10:54:00
6:54 AM,34.0,24.1,67,30.22,9.0,West,20.7,27.6,0.00,Snow,Light Snow,280,2011-11-18 11:54:00
7:45 AM,33.8,24.8,70,30.24,2.5,WNW,15.0,21.9,0.01,Snow,Light Snow,290,2011-11-18 12:45:00
7:49 AM,33.8,24.8,70,30.24,3.0,West,16.1,-,0.01,Snow,Light Snow,280,2011-11-18 12:49:00
7:54 AM,34.0,25.0,70,30.25,4.0,West,11.5,21.9,0.01,Snow,Light Snow,270,2011-11-18 12:54:00
8:12 AM,35.6,24.8,65,30.25,9.0,West,19.6,28.8,0.00,Snow,Light Snow,280,2011-11-18 13:12:00
8:26 AM,35.6,24.8,65,30.26,9.0,West,16.1,26.5,0.00,,Mostly Cloudy,280,2011-11-18 13:26:00
8:54 AM,36.0,24.1,62,30.27,10.0,WNW,20.7,26.5,0.00,,Mostly Cloudy,290,2011-11-18 13:54:00
9:54 AM,37.9,23.0,55,30.29,10.0,West,24.2,28.8,N/A,,Scattered Clouds,280,2011-11-18 14:54:00
10:54 AM,39.9,19.9,45,30.31,10.0,WNW,17.3,27.6,N/A,,Scattered Clouds,290,2011-11-18 15:54:00
11:54 AM,41.0,19.0,41,30.31,10.0,WNW,21.9,28.8,N/A,,Scattered Clouds,290,2011-11-18 16:54:00
12:54 PM,42.1,19.0,40,30.30,10.0,WNW,19.6,-,N/A,,Scattered Clouds,300,2011-11-18 17:54:00
1:54 PM,43.0,19.9,40,30.30,10.0,West,12.7,24.2,N/A,,Scattered Clouds,270,2011-11-18 18:54:00
2:54 PM,42.1,21.0,43,30.30,10.0,West,12.7,21.9,N/A,,Scattered Clouds,280,2011-11-18 19:54:00
3:54 PM,41.0,21.0,45,30.30,10.0,WSW,13.8,-,N/A,,Scattered Clouds,250,2011-11-18 20:54:00
4:54 PM,39.0,21.9,50,30.29,10.0,SW,6.9,-,N/A,,Mostly Cloudy,230,2011-11-18 21:54:00
5:54 PM,37.9,21.9,53,30.30,10.0,SSW,5.8,-,N/A,,Mostly Cloudy,210,2011-11-18 22:54:00
6:54 PM,36.0,21.0,55,30.28,10.0,South,5.8,-,N/A,,Scattered Clouds,190,2011-11-18 23:54:00
7:54 PM,36.0,21.0,55,30.27,10.0,South,5.8,-,N/A,,Scattered Clouds,170,2011-11-19 00:54:00
8:54 PM,37.0,19.9,50,30.25,10.0,South,5.8,-,N/A,,Scattered Clouds,190,2011-11-19 01:54:00
9:54 PM,37.9,19.0,47,30.24,10.0,South,6.9,-,N/A,,Mostly Cloudy,180,2011-11-19 02:54:00
10:54 PM,39.9,18.0,41,30.22,10.0,SSW,11.5,21.9,N/A,,Overcast,210,2011-11-19 03:54:00
11:54 PM,39.9,18.0,41,30.21,10.0,South,10.4,-,N/A,,Overcast,190,2011-11-19 04:54:00